KOREASAT 6A

Last updated on Mon Oct 20 2025 00:02:51 GMT+0000 (Coordinated Universal Time)

1 61910U 24206A 25292.29028399 -.00000364 00000+0 00000+0 0 9995 2 61910 0.0095 220.2496 0000809 330.3492 57.9362 1.00273149 3427
UTC large
Height (km)
Speed (km/s)
/
Latitude / Longitude
Inclination (degrees)
Orbital Period (minutes)
Azimuth
Elevation
Range (km)
Doppler Factor

Next 0 passes for location: London (51.5072 / 0.1276)

Sorry there are no passes over London.